date,time,SUV Intensity [MED/Hr],UV Index,Daily total [MED],Since Last [MED]
04/12/2022,00:03:23,0.000,0.0,0.0,0.0
04/12/2022,00:04:24,0.000,0.0,0.0,0.0
04/12/2022,00:05:23,0.000,0.0,0.0,0.0
04/12/2022,00:06:24,0.000,0.0,0.0,0.0
04/12/2022,00:07:24,0.000,0.0,0.0,0.0
04/12/2022,00:08:24,0.000,0.0,0.0,0.0
04/12/2022,00:09:24,-0.001,0.0,0.0,0.0
04/12/2022,00:10:24,0.000,0.0,0.0,0.0
04/12/2022,00:11:24,-0.000,0.0,0.0,0.0
04/12/2022,00:12:24,-0.000,0.0,0.0,0.0
04/12/2022,00:13:24,-0.000,0.0,0.0,0.0
04/12/2022,00:14:24,0.000,0.0,0.0,0.0
04/12/2022,00:15:24,0.000,0.0,0.0,0.0
04/12/2022,00:16:24,-0.000,0.0,0.0,0.0
04/12/2022,00:17:24,0.000,0.0,0.0,0.0
04/12/2022,00:18:24,0.000,0.0,0.0,0.0
04/12/2022,00:19:24,0.000,0.0,0.0,0.0
04/12/2022,00:20:24,0.000,0.0,0.0,0.0
04/12/2022,00:21:24,0.000,0.0,0.0,0.0
04/12/2022,00:22:23,-0.000,0.0,0.0,0.0
04/12/2022,00:23:24,0.000,0.0,0.0,0.0
04/12/2022,00:24:24,0.000,0.0,0.0,0.0
04/12/2022,00:25:25,0.000,0.0,0.0,0.0
04/12/2022,00:26:25,0.001,0.0,0.0,0.0
04/12/2022,00:27:24,0.000,0.0,0.0,0.0
04/12/2022,00:28:24,0.000,0.0,0.0,0.0
04/12/2022,00:29:24,-0.000,0.0,0.0,0.0
04/12/2022,00:30:24,0.001,0.0,0.0,0.0
04/12/2022,00:31:23,0.001,0.0,0.0,0.0
04/12/2022,00:32:24,0.000,0.0,0.0,0.0
04/12/2022,00:33:24,0.000,0.0,0.0,0.0
04/12/2022,00:34:24,0.000,0.0,0.0,0.0
04/12/2022,00:35:24,0.000,0.0,0.0,0.0
04/12/2022,00:36:24,0.000,0.0,0.0,0.0
04/12/2022,00:37:24,0.000,0.0,0.0,0.0
04/12/2022,00:38:24,0.000,0.0,0.0,0.0
04/12/2022,00:39:24,0.000,0.0,0.0,0.0
04/12/2022,00:40:24,0.000,0.0,0.0,0.0
04/12/2022,00:41:24,0.000,0.0,0.0,0.0
04/12/2022,00:42:24,-0.000,0.0,0.0,0.0
04/12/2022,00:43:24,-0.000,0.0,0.0,0.0
04/12/2022,00:44:24,0.000,0.0,0.0,0.0
04/12/2022,00:45:24,0.000,0.0,0.0,0.0
04/12/2022,00:46:24,0.000,0.0,0.0,0.0
04/12/2022,00:47:24,-0.000,0.0,0.0,0.0
04/12/2022,00:48:24,0.000,0.0,0.0,0.0
04/12/2022,00:49:24,0.000,0.0,0.0,0.0
04/12/2022,00:50:24,0.000,0.0,0.0,0.0
04/12/2022,00:51:24,0.000,0.0,0.0,0.0
04/12/2022,00:52:24,0.001,0.0,0.0,0.0
04/12/2022,00:53:24,0.001,0.0,0.0,0.0
04/12/2022,00:54:24,-0.000,0.0,0.0,0.0
04/12/2022,00:55:24,-0.000,0.0,0.0,0.0
04/12/2022,00:56:24,0.000,0.0,0.0,0.0
04/12/2022,00:57:24,0.000,0.0,0.0,0.0
04/12/2022,00:58:23,0.000,0.0,0.0,0.0
04/12/2022,00:59:24,0.000,0.0,0.0,0.0
04/12/2022,01:00:24,0.000,0.0,0.0,0.0
04/12/2022,01:01:24,0.000,0.0,0.0,0.0
04/12/2022,01:02:23,0.000,0.0,0.0,0.0
04/12/2022,01:03:24,0.000,0.0,0.0,0.0
04/12/2022,01:04:24,0.000,0.0,0.0,0.0
04/12/2022,01:05:24,0.000,0.0,0.0,0.0
04/12/2022,01:06:24,0.000,0.0,0.0,0.0
04/12/2022,01:07:23,-0.001,0.0,0.0,0.0
04/12/2022,01:08:24,0.000,0.0,0.0,0.0
04/12/2022,01:09:24,0.000,0.0,0.0,0.0
04/12/2022,01:10:24,-0.000,0.0,0.0,0.0
04/12/2022,01:11:24,0.000,0.0,0.0,0.0
04/12/2022,01:12:24,-0.000,0.0,0.0,0.0
04/12/2022,01:13:24,0.000,0.0,0.0,0.0
04/12/2022,01:14:24,0.000,0.0,0.0,0.0
04/12/2022,01:15:24,-0.000,0.0,0.0,0.0
04/12/2022,01:16:24,-0.000,0.0,0.0,0.0
04/12/2022,01:17:24,0.000,0.0,0.0,0.0
04/12/2022,01:18:24,0.000,0.0,0.0,0.0
04/12/2022,01:19:24,-0.000,0.0,0.0,0.0
04/12/2022,01:20:24,0.000,0.0,0.0,0.0
04/12/2022,01:21:24,0.000,0.0,0.0,0.0
04/12/2022,01:22:25,0.000,0.0,0.0,0.0
04/12/2022,01:23:25,0.000,0.0,0.0,0.0
04/12/2022,01:24:23,-0.000,0.0,0.0,0.0
04/12/2022,01:25:24,0.000,0.0,0.0,0.0
04/12/2022,01:26:24,0.000,0.0,0.0,0.0
04/12/2022,01:27:24,0.000,0.0,0.0,0.0
04/12/2022,01:28:24,-0.000,0.0,0.0,0.0
04/12/2022,01:29:24,-0.000,0.0,0.0,0.0
04/12/2022,01:30:24,-0.000,0.0,0.0,0.0
04/12/2022,01:31:24,-0.000,0.0,0.0,0.0
04/12/2022,01:32:24,0.001,0.0,0.0,0.0
04/12/2022,01:33:24,0.000,0.0,0.0,0.0
04/12/2022,01:34:24,-0.000,0.0,0.0,0.0
04/12/2022,01:35:24,0.000,0.0,0.0,0.0
04/12/2022,01:36:24,0.000,0.0,0.0,0.0
04/12/2022,01:37:24,-0.000,0.0,0.0,0.0
04/12/2022,01:38:24,0.000,0.0,0.0,0.0
04/12/2022,01:39:24,-0.000,0.0,0.0,0.0
04/12/2022,01:40:24,0.000,0.0,0.0,0.0
04/12/2022,01:41:24,0.001,0.0,0.0,0.0
04/12/2022,01:42:24,-0.000,0.0,0.0,0.0
04/12/2022,01:43:24,-0.000,0.0,0.0,0.0
04/12/2022,01:44:24,0.000,0.0,0.0,0.0
04/12/2022,01:45:24,-0.000,0.0,0.0,0.0
04/12/2022,01:46:24,0.000,0.0,0.0,0.0
04/12/2022,01:47:24,0.000,0.0,0.0,0.0
04/12/2022,01:48:25,-0.000,0.0,0.0,0.0
04/12/2022,01:49:24,-0.000,0.0,0.0,0.0
04/12/2022,01:50:24,0.000,0.0,0.0,0.0
04/12/2022,01:51:24,0.000,0.0,0.0,0.0
04/12/2022,01:52:24,0.000,0.0,0.0,0.0
04/12/2022,01:53:24,0.000,0.0,0.0,0.0
04/12/2022,01:54:24,-0.000,0.0,0.0,0.0
04/12/2022,01:55:24,0.000,0.0,0.0,0.0
04/12/2022,01:56:24,-0.000,0.0,0.0,0.0
04/12/2022,01:57:24,0.000,0.0,0.0,0.0
04/12/2022,01:58:24,-0.000,0.0,0.0,0.0
04/12/2022,01:59:24,0.002,0.0,0.0,0.0
04/12/2022,02:00:24,0.000,0.0,0.0,0.0
04/12/2022,02:01:24,-0.000,0.0,0.0,0.0
04/12/2022,02:02:24,0.001,0.0,0.0,0.0
04/12/2022,02:03:24,0.000,0.0,0.0,0.0
04/12/2022,02:04:24,0.000,0.0,0.0,0.0
04/12/2022,02:05:24,0.000,0.0,0.0,0.0
04/12/2022,02:06:24,0.001,0.0,0.0,0.0
04/12/2022,02:07:24,-0.000,0.0,0.0,0.0
04/12/2022,02:08:24,0.000,0.0,0.0,0.0
04/12/2022,02:09:25,0.000,0.0,0.0,0.0
04/12/2022,02:10:24,-0.000,0.0,0.0,0.0
04/12/2022,02:11:24,0.000,0.0,0.0,0.0
04/12/2022,02:12:24,0.000,0.0,0.0,0.0
04/12/2022,02:13:24,-0.000,0.0,0.0,0.0
04/12/2022,02:14:24,0.000,0.0,0.0,0.0
04/12/2022,02:15:24,0.000,0.0,0.0,0.0
04/12/2022,02:16:24,0.000,0.0,0.0,0.0
04/12/2022,02:17:24,-0.000,0.0,0.0,0.0
04/12/2022,02:18:24,0.001,0.0,0.0,0.0
04/12/2022,02:19:24,0.001,0.0,0.0,0.0
04/12/2022,02:20:24,-0.000,0.0,0.0,0.0
04/12/2022,02:21:24,0.000,0.0,0.0,0.0
04/12/2022,02:22:24,0.000,0.0,0.0,0.0
04/12/2022,02:23:24,0.000,0.0,0.0,0.0
04/12/2022,02:24:24,0.000,0.0,0.0,0.0
04/12/2022,02:25:24,0.000,0.0,0.0,0.0
04/12/2022,02:26:24,0.001,0.0,0.0,0.0
04/12/2022,02:27:24,0.000,0.0,0.0,0.0
04/12/2022,02:28:24,0.000,0.0,0.0,0.0
04/12/2022,02:29:24,0.000,0.0,0.0,0.0
04/12/2022,02:30:25,0.000,0.0,0.0,0.0
04/12/2022,02:31:25,0.000,0.0,0.0,0.0
04/12/2022,02:32:24,-0.000,0.0,0.0,0.0
04/12/2022,02:33:24,0.000,0.0,0.0,0.0
04/12/2022,02:34:24,0.000,0.0,0.0,0.0
04/12/2022,02:35:24,0.001,0.0,0.0,0.0
04/12/2022,02:36:24,0.000,0.0,0.0,0.0
04/12/2022,02:37:24,0.000,0.0,0.0,0.0
04/12/2022,02:38:24,-0.000,0.0,0.0,0.0
04/12/2022,02:39:24,-0.000,0.0,0.0,0.0
04/12/2022,02:40:24,-0.000,0.0,0.0,0.0
04/12/2022,02:41:24,0.000,0.0,0.0,0.0
04/12/2022,02:42:24,0.000,0.0,0.0,0.0
04/12/2022,02:43:24,0.000,0.0,0.0,0.0
04/12/2022,02:44:24,0.000,0.0,0.0,0.0
04/12/2022,02:45:24,0.001,0.0,0.0,0.0
04/12/2022,02:46:24,0.000,0.0,0.0,0.0
04/12/2022,02:47:24,0.000,0.0,0.0,0.0
04/12/2022,02:48:24,0.000,0.0,0.0,0.0
04/12/2022,02:49:24,-0.000,0.0,0.0,0.0
04/12/2022,02:50:24,0.000,0.0,0.0,0.0
04/12/2022,02:51:24,0.000,0.0,0.0,0.0
04/12/2022,02:52:24,-0.000,0.0,0.0,0.0
04/12/2022,02:53:24,0.000,0.0,0.0,0.0
04/12/2022,02:54:24,0.000,0.0,0.0,0.0
04/12/2022,02:55:24,0.000,0.0,0.0,0.0
04/12/2022,02:56:24,0.000,0.0,0.0,0.0
04/12/2022,02:57:23,-0.000,0.0,0.0,0.0
04/12/2022,02:58:46,-0.001,0.0,0.0,0.0
04/12/2022,02:59:24,0.000,0.0,0.0,0.0
04/12/2022,03:00:24,-0.000,0.0,0.0,0.0
04/12/2022,03:01:24,0.000,0.0,0.0,0.0
04/12/2022,03:02:24,0.000,0.0,0.0,0.0
04/12/2022,03:03:24,0.000,0.0,0.0,0.0
04/12/2022,03:04:25,0.001,0.0,0.0,0.0
04/12/2022,03:05:24,0.000,0.0,0.0,0.0
04/12/2022,03:06:24,0.001,0.0,0.0,0.0
04/12/2022,03:07:24,0.000,0.0,0.0,0.0
04/12/2022,03:08:24,-0.000,0.0,0.0,0.0
04/12/2022,03:09:25,0.000,0.0,0.0,0.0
04/12/2022,03:10:24,0.000,0.0,0.0,0.0
04/12/2022,03:11:47,0.000,0.0,0.0,0.0
04/12/2022,03:12:24,0.000,0.0,0.0,0.0
04/12/2022,03:13:24,0.001,0.0,0.0,0.0
04/12/2022,03:14:24,0.000,0.0,0.0,0.0
04/12/2022,03:15:46,0.000,0.0,0.0,0.0
04/12/2022,03:16:24,-0.000,0.0,0.0,0.0
04/12/2022,03:17:24,-0.000,0.0,0.0,0.0
04/12/2022,03:18:25,0.000,0.0,0.0,0.0
04/12/2022,03:19:25,0.001,0.0,0.0,0.0
04/12/2022,03:20:24,0.001,0.0,0.0,0.0
04/12/2022,03:21:24,-0.000,0.0,0.0,0.0
04/12/2022,03:22:24,0.001,0.0,0.0,0.0
04/12/2022,03:23:24,0.001,0.0,0.0,0.0
04/12/2022,03:24:24,0.002,0.0,0.0,0.0
04/12/2022,03:25:24,0.002,0.0,0.0,0.0
04/12/2022,03:26:24,0.000,0.0,0.0,0.0
04/12/2022,03:27:24,0.001,0.0,0.0,0.0
04/12/2022,03:28:24,0.001,0.0,0.0,0.0
04/12/2022,03:29:25,-0.000,0.0,0.0,0.0
04/12/2022,03:30:25,0.001,0.0,0.0,0.0
04/12/2022,03:31:24,0.000,0.0,0.0,0.0
04/12/2022,03:32:24,0.001,0.0,0.0,0.0
04/12/2022,03:33:24,0.001,0.0,0.0,0.0
04/12/2022,03:34:24,0.001,0.0,0.0,0.0
04/12/2022,03:35:25,-0.000,0.0,0.0,0.0
04/12/2022,03:36:24,0.001,0.0,0.0,0.0
04/12/2022,03:37:24,0.000,0.0,0.0,0.0
04/12/2022,03:38:24,0.001,0.0,0.0,0.0
04/12/2022,03:39:24,0.000,0.0,0.0,0.0
04/12/2022,03:40:25,0.002,0.0,0.0,0.0
04/12/2022,03:41:24,0.001,0.0,0.0,0.0
04/12/2022,03:42:25,0.001,0.0,0.0,0.0
04/12/2022,03:43:24,-0.000,0.0,0.0,0.0
04/12/2022,03:44:24,-0.000,0.0,0.0,0.0
04/12/2022,03:45:24,0.001,0.0,0.0,0.0
04/12/2022,03:46:24,0.001,0.0,0.0,0.0
04/12/2022,03:47:24,0.001,0.0,0.0,0.0
04/12/2022,03:48:24,-0.001,0.0,0.0,0.0
04/12/2022,03:49:24,0.002,0.0,0.0,0.0
04/12/2022,03:50:24,0.001,0.0,0.0,0.0
04/12/2022,03:51:24,0.002,0.0,0.0,0.0
04/12/2022,03:52:24,0.001,0.0,0.0,0.0
04/12/2022,03:53:24,0.001,0.0,0.0,0.0
04/12/2022,03:54:25,-0.000,0.0,0.0,0.0
04/12/2022,03:55:24,0.001,0.0,0.0,0.0
04/12/2022,03:56:24,0.001,0.0,0.0,0.0
04/12/2022,03:57:24,0.001,0.0,0.0,0.0
04/12/2022,03:58:24,0.001,0.0,0.0,0.0
04/12/2022,03:59:24,0.001,0.0,0.0,0.0
04/12/2022,04:00:24,0.001,0.0,0.0,0.0
04/12/2022,04:01:24,0.001,0.0,0.0,0.0
04/12/2022,04:02:24,0.001,0.0,0.0,0.0
04/12/2022,04:03:24,-0.000,0.0,0.0,0.0
04/12/2022,04:04:24,0.000,0.0,0.0,0.0
04/12/2022,04:05:24,-0.000,0.0,0.0,0.0
04/12/2022,04:06:25,0.000,0.0,0.0,0.0
04/12/2022,04:07:24,0.000,0.0,0.0,0.0
04/12/2022,04:08:25,0.000,0.0,0.0,0.0
04/12/2022,04:09:24,0.000,0.0,0.0,0.0
04/12/2022,04:10:24,0.000,0.0,0.0,0.0
04/12/2022,04:11:24,0.000,0.0,0.0,0.0
04/12/2022,04:12:24,-0.000,0.0,0.0,0.0
04/12/2022,04:13:25,0.000,0.0,0.0,0.0
04/12/2022,04:14:24,0.000,0.0,0.0,0.0
04/12/2022,04:15:24,0.000,0.0,0.0,0.0
04/12/2022,04:16:24,-0.000,0.0,0.0,0.0
04/12/2022,04:17:24,0.001,0.0,0.0,0.0
04/12/2022,04:18:24,0.001,0.0,0.0,0.0
04/12/2022,04:19:24,0.001,0.0,0.0,0.0
04/12/2022,04:20:24,0.000,0.0,0.0,0.0
04/12/2022,04:21:25,0.000,0.0,0.0,0.0
04/12/2022,04:22:24,0.000,0.0,0.0,0.0
04/12/2022,04:23:25,0.000,0.0,0.0,0.0
04/12/2022,04:24:24,0.000,0.0,0.0,0.0
04/12/2022,04:25:24,-0.000,0.0,0.0,0.0
04/12/2022,04:26:24,-0.000,0.0,0.0,0.0
04/12/2022,04:27:24,0.001,0.0,0.0,0.0
04/12/2022,04:28:24,0.001,0.0,0.0,0.0
04/12/2022,04:29:24,0.000,0.0,0.0,0.0
04/12/2022,04:30:25,0.000,0.0,0.0,0.0
04/12/2022,04:31:24,0.000,0.0,0.0,0.0
04/12/2022,04:32:24,0.002,0.0,0.0,0.0
04/12/2022,04:33:24,0.000,0.0,0.0,0.0
04/12/2022,04:34:24,0.000,0.0,0.0,0.0
04/12/2022,04:35:24,0.001,0.0,0.0,0.0
04/12/2022,04:36:24,0.001,0.0,0.0,0.0
04/12/2022,04:37:24,0.002,0.0,0.0,0.0
04/12/2022,04:38:24,0.001,0.0,0.0,0.0
04/12/2022,04:39:24,0.000,0.0,0.0,0.0
04/12/2022,04:40:24,0.000,0.0,0.0,0.0
04/12/2022,04:41:24,0.000,0.0,0.0,0.0
04/12/2022,04:42:24,0.000,0.0,0.0,0.0
04/12/2022,04:43:24,0.000,0.0,0.0,0.0
04/12/2022,04:44:25,0.000,0.0,0.0,0.0
04/12/2022,04:45:24,0.001,0.0,0.0,0.0
04/12/2022,04:46:25,0.001,0.0,0.0,0.0
04/12/2022,04:47:25,0.000,0.0,0.0,0.0
04/12/2022,04:48:24,0.000,0.0,0.0,0.0
04/12/2022,04:49:24,0.001,0.0,0.0,0.0
04/12/2022,04:50:24,0.000,0.0,0.0,0.0
04/12/2022,04:51:24,0.001,0.0,0.0,0.0
04/12/2022,04:52:24,0.000,0.0,0.0,0.0
04/12/2022,04:53:24,0.000,0.0,0.0,0.0
04/12/2022,04:54:24,0.000,0.0,0.0,0.0
04/12/2022,04:55:24,0.001,0.0,0.0,0.0
04/12/2022,04:56:24,0.000,0.0,0.0,0.0
04/12/2022,04:57:24,0.000,0.0,0.0,0.0
04/12/2022,04:58:24,0.001,0.0,0.0,0.0
04/12/2022,04:59:24,-0.000,0.0,0.0,0.0
04/12/2022,05:00:24,0.000,0.0,0.0,0.0
04/12/2022,05:01:24,0.001,0.0,0.0,0.0
04/12/2022,05:02:24,0.000,0.0,0.0,0.0
04/12/2022,05:03:25,0.000,0.0,0.0,0.0
04/12/2022,05:04:24,-0.001,0.0,0.0,0.0
04/12/2022,05:05:24,0.001,0.0,0.0,0.0
04/12/2022,05:06:24,0.000,0.0,0.0,0.0
04/12/2022,05:07:24,0.000,0.0,0.0,0.0
04/12/2022,05:08:24,0.000,0.0,0.0,0.0
04/12/2022,05:09:24,-0.000,0.0,0.0,0.0
04/12/2022,05:10:24,0.001,0.0,0.0,0.0
04/12/2022,05:11:24,-0.000,0.0,0.0,0.0
04/12/2022,05:12:25,-0.000,0.0,0.0,0.0
04/12/2022,05:13:24,0.000,0.0,0.0,0.0
04/12/2022,05:14:25,0.001,0.0,0.0,0.0
04/12/2022,05:15:25,0.000,0.0,0.0,0.0
04/12/2022,05:16:25,-0.000,0.0,0.0,0.0
04/12/2022,05:17:24,0.000,0.0,0.0,0.0
04/12/2022,05:18:25,0.001,0.0,0.0,0.0
04/12/2022,05:19:24,0.000,0.0,0.0,0.0
04/12/2022,05:20:24,0.000,0.0,0.0,0.0
04/12/2022,05:21:24,0.001,0.0,0.0,0.0
04/12/2022,05:22:23,0.000,0.0,0.0,0.0
04/12/2022,05:23:46,-0.000,0.0,0.0,0.0
04/12/2022,05:24:24,-0.000,0.0,0.0,0.0
04/12/2022,05:25:24,0.000,0.0,0.0,0.0
04/12/2022,05:26:24,0.000,0.0,0.0,0.0
04/12/2022,05:27:24,-0.000,0.0,0.0,0.0
04/12/2022,05:28:24,0.000,0.0,0.0,0.0
04/12/2022,05:29:24,0.000,0.0,0.0,0.0
04/12/2022,05:30:24,0.000,0.0,0.0,0.0
04/12/2022,05:31:25,-0.000,0.0,0.0,0.0
04/12/2022,05:32:25,0.000,0.0,0.0,0.0
04/12/2022,05:33:24,0.000,0.0,0.0,0.0
04/12/2022,05:34:25,0.001,0.0,0.0,0.0
04/12/2022,05:35:24,0.000,0.0,0.0,0.0
04/12/2022,05:36:24,0.000,0.0,0.0,0.0
04/12/2022,05:37:25,0.000,0.0,0.0,0.0
04/12/2022,05:38:25,0.002,0.0,0.0,0.0
04/12/2022,05:39:24,0.001,0.0,0.0,0.0
04/12/2022,05:40:25,0.000,0.0,0.0,0.0
04/12/2022,05:41:24,0.000,0.0,0.0,0.0
04/12/2022,05:42:25,0.000,0.0,0.0,0.0
04/12/2022,05:43:24,0.001,0.0,0.0,0.0
04/12/2022,05:44:25,0.001,0.0,0.0,0.0
04/12/2022,05:45:24,0.001,0.0,0.0,0.0
04/12/2022,05:46:25,0.001,0.0,0.0,0.0
04/12/2022,05:47:24,0.001,0.0,0.0,0.0
04/12/2022,05:48:24,0.002,0.0,0.0,0.0
04/12/2022,05:49:46,0.000,0.0,0.0,0.0
04/12/2022,05:50:24,0.000,0.0,0.0,0.0
04/12/2022,05:51:25,0.000,0.0,0.0,0.0
04/12/2022,05:52:24,-0.000,0.0,0.0,0.0
04/12/2022,05:53:25,0.001,0.0,0.0,0.0
04/12/2022,05:54:26,-0.000,0.0,0.0,0.0
04/12/2022,05:55:25,0.002,0.0,0.0,0.0
04/12/2022,05:56:25,0.000,0.0,0.0,0.0
04/12/2022,05:57:25,-0.000,0.0,0.0,0.0
04/12/2022,05:58:25,0.001,0.0,0.0,0.0
04/12/2022,05:59:24,0.000,0.0,0.0,0.0
04/12/2022,06:00:24,0.001,0.0,0.0,0.0
04/12/2022,06:01:24,0.000,0.0,0.0,0.0
04/12/2022,06:02:24,0.001,0.0,0.0,0.0
04/12/2022,06:03:25,0.000,0.0,0.0,0.0
04/12/2022,06:04:24,0.000,0.0,0.0,0.0
04/12/2022,06:05:24,0.000,0.0,0.0,0.0
04/12/2022,06:06:24,0.000,0.0,0.0,0.0
04/12/2022,06:07:24,0.001,0.0,0.0,0.0
04/12/2022,06:08:24,0.001,0.0,0.0,0.0
04/12/2022,06:09:24,0.000,0.0,0.0,0.0
04/12/2022,06:10:25,0.000,0.0,0.0,0.0
04/12/2022,06:11:24,0.000,0.0,0.0,0.0
04/12/2022,06:12:24,0.001,0.0,0.0,0.0
04/12/2022,06:13:24,0.000,0.0,0.0,0.0
04/12/2022,06:14:25,0.000,0.0,0.0,0.0
04/12/2022,06:15:25,0.000,0.0,0.0,0.0
04/12/2022,06:16:25,0.000,0.0,0.0,0.0
04/12/2022,06:17:24,0.000,0.0,0.0,0.0
04/12/2022,06:18:25,0.000,0.0,0.0,0.0
04/12/2022,06:19:24,-0.000,0.0,0.0,0.0
04/12/2022,06:20:24,0.000,0.0,0.0,0.0
04/12/2022,06:21:25,0.001,0.0,0.0,0.0
04/12/2022,06:22:24,0.000,0.0,0.0,0.0
04/12/2022,06:23:24,0.000,0.0,0.0,0.0
04/12/2022,06:24:24,-0.000,0.0,0.0,0.0
04/12/2022,06:25:24,-0.000,0.0,0.0,0.0
04/12/2022,06:26:25,0.000,0.0,0.0,0.0
04/12/2022,06:27:24,0.000,0.0,0.0,0.0
04/12/2022,06:28:25,0.000,0.0,0.0,0.0
04/12/2022,06:29:24,-0.000,0.0,0.0,0.0
04/12/2022,06:30:25,0.000,0.0,0.0,0.0
04/12/2022,06:31:25,-0.000,0.0,0.0,0.0
04/12/2022,06:32:25,0.000,0.0,0.0,0.0
04/12/2022,06:33:25,0.000,0.0,0.0,0.0
04/12/2022,06:34:24,0.000,0.0,0.0,0.0
04/12/2022,06:35:25,0.000,0.0,0.0,0.0
04/12/2022,06:36:25,0.000,0.0,0.0,0.0
04/12/2022,06:37:25,0.000,0.0,0.0,0.0
04/12/2022,06:38:24,0.000,0.0,0.0,0.0
04/12/2022,06:39:25,0.000,0.0,0.0,0.0
04/12/2022,06:40:24,-0.000,0.0,0.0,0.0
04/12/2022,06:41:24,0.001,0.0,0.0,0.0
04/12/2022,06:42:24,-0.000,0.0,0.0,0.0
04/12/2022,06:43:24,0.001,0.0,0.0,0.0
04/12/2022,06:44:25,0.000,0.0,0.0,0.0
04/12/2022,06:45:24,-0.000,0.0,0.0,0.0
04/12/2022,06:46:26,-0.000,0.0,0.0,0.0
04/12/2022,06:47:24,0.000,0.0,0.0,0.0
04/12/2022,06:48:25,0.000,0.0,0.0,0.0
04/12/2022,06:49:24,0.001,0.0,0.0,0.0
04/12/2022,06:50:24,0.000,0.0,0.0,0.0
04/12/2022,06:51:25,0.000,0.0,0.0,0.0
04/12/2022,06:52:24,0.001,0.0,0.0,0.0
04/12/2022,06:53:24,0.001,0.0,0.0,0.0
04/12/2022,06:54:24,0.000,0.0,0.0,0.0
04/12/2022,06:55:24,0.000,0.0,0.0,0.0
04/12/2022,06:56:25,0.000,0.0,0.0,0.0
04/12/2022,06:57:25,-0.000,0.0,0.0,0.0
04/12/2022,06:58:25,0.001,0.0,0.0,0.0
04/12/2022,06:59:24,0.000,0.0,0.0,0.0
04/12/2022,07:00:24,0.000,0.0,0.0,0.0
04/12/2022,07:01:24,0.000,0.0,0.0,0.0
04/12/2022,07:02:24,0.000,0.0,0.0,0.0
04/12/2022,07:03:25,0.000,0.0,0.0,0.0
04/12/2022,07:04:25,-0.000,0.0,0.0,0.0
04/12/2022,07:05:25,-0.000,0.0,0.0,0.0
04/12/2022,07:06:25,0.000,0.0,0.0,0.0
04/12/2022,07:07:25,0.000,0.0,0.0,0.0
04/12/2022,07:08:25,0.001,0.0,0.0,0.0
04/12/2022,07:09:25,-0.000,0.0,0.0,0.0
04/12/2022,07:10:24,0.000,0.0,0.0,0.0
04/12/2022,07:11:25,0.000,0.0,0.0,0.0
04/12/2022,07:12:24,0.000,0.0,0.0,0.0
04/12/2022,07:13:25,0.000,0.0,0.0,0.0
04/12/2022,07:14:24,0.001,0.0,0.0,0.0
04/12/2022,07:15:25,0.000,0.0,0.0,0.0
04/12/2022,07:16:25,0.000,0.0,0.0,0.0
04/12/2022,07:17:24,-0.000,0.0,0.0,0.0
04/12/2022,07:18:25,0.000,0.0,0.0,0.0
04/12/2022,07:19:24,0.000,0.0,0.0,0.0
04/12/2022,07:20:25,-0.000,0.0,0.0,0.0
04/12/2022,07:21:24,0.000,0.0,0.0,0.0
04/12/2022,07:22:24,0.001,0.0,0.0,0.0
04/12/2022,07:23:24,0.000,0.0,0.0,0.0
04/12/2022,07:24:24,0.000,0.0,0.0,0.0
04/12/2022,07:25:25,0.000,0.0,0.0,0.0
04/12/2022,07:26:25,0.000,0.0,0.0,0.0
04/12/2022,07:27:24,0.000,0.0,0.0,0.0
04/12/2022,07:28:25,0.000,0.0,0.0,0.0
04/12/2022,07:29:25,0.000,0.0,0.0,0.0
04/12/2022,07:30:24,0.000,0.0,0.0,0.0
04/12/2022,07:31:25,-0.000,0.0,0.0,0.0
04/12/2022,07:32:25,0.000,0.0,0.0,0.0
04/12/2022,07:33:25,0.001,0.0,0.0,0.0
04/12/2022,07:34:24,0.000,0.0,0.0,0.0
04/12/2022,07:35:24,-0.000,0.0,0.0,0.0
04/12/2022,07:36:24,-0.001,0.0,0.0,0.0
04/12/2022,07:37:24,0.000,0.0,0.0,0.0
04/12/2022,07:38:25,0.000,0.0,0.0,0.0
04/12/2022,07:39:25,0.000,0.0,0.0,0.0
04/12/2022,07:40:24,0.000,0.0,0.0,0.0
04/12/2022,07:41:24,0.000,0.0,0.0,0.0
04/12/2022,07:42:24,-0.000,0.0,0.0,0.0
04/12/2022,07:43:24,-0.000,0.0,0.0,0.0
04/12/2022,07:44:24,0.000,0.0,0.0,0.0
04/12/2022,07:45:24,0.000,0.0,0.0,0.0
04/12/2022,07:46:24,0.000,0.0,0.0,0.0
04/12/2022,07:47:25,0.001,0.0,0.0,0.0
04/12/2022,07:48:24,0.001,0.0,0.0,0.0
04/12/2022,07:49:25,0.001,0.0,0.0,0.0
04/12/2022,07:50:24,0.002,0.0,0.0,0.0
04/12/2022,07:51:25,0.001,0.0,0.0,0.0
04/12/2022,07:52:24,0.002,0.0,0.0,0.0
04/12/2022,07:53:24,0.001,0.0,0.0,0.0
04/12/2022,07:54:25,0.001,0.0,0.0,0.0
04/12/2022,07:55:25,0.001,0.0,0.0,0.0
04/12/2022,07:56:25,-0.000,0.0,0.0,0.0
04/12/2022,07:57:25,0.001,0.0,0.0,0.0
04/12/2022,07:58:25,0.001,0.0,0.0,0.0
04/12/2022,07:59:28,0.000,0.0,0.0,0.0
04/12/2022,08:00:25,0.001,0.0,0.0,0.0
04/12/2022,08:01:25,0.001,0.0,0.0,0.0
04/12/2022,08:02:24,0.001,0.0,0.0,0.0
04/12/2022,08:03:25,0.001,0.0,0.0,0.0
04/12/2022,08:04:25,0.001,0.0,0.0,0.0
04/12/2022,08:05:25,0.001,0.0,0.0,0.0
04/12/2022,08:06:26,0.002,0.0,0.0,0.0
04/12/2022,08:07:25,0.001,0.0,0.0,0.0
04/12/2022,08:08:25,0.001,0.0,0.0,0.0
04/12/2022,08:09:25,0.002,0.0,0.0,0.0
04/12/2022,08:10:25,0.002,0.0,0.0,0.0
04/12/2022,08:11:24,0.002,0.0,0.0,0.0
04/12/2022,08:12:25,0.002,0.0,0.0,0.0
04/12/2022,08:13:25,0.002,0.0,0.0,0.0
04/12/2022,08:14:24,0.001,0.0,0.0,0.0
04/12/2022,08:15:25,0.002,0.0,0.0,0.0
04/12/2022,08:16:24,0.002,0.0,0.0,0.0
04/12/2022,08:17:24,0.002,0.0,0.0,0.0
04/12/2022,08:18:25,0.001,0.0,0.0,0.0
04/12/2022,08:19:25,0.002,0.0,0.0,0.0
04/12/2022,08:20:24,0.001,0.0,0.0,0.0
04/12/2022,08:21:25,0.002,0.0,0.0,0.0
04/12/2022,08:22:24,0.002,0.0,0.0,0.0
04/12/2022,08:23:24,0.002,0.0,0.0,0.0
04/12/2022,08:24:25,0.002,0.0,0.0,0.0
04/12/2022,08:25:25,0.003,0.0,0.0,0.0
04/12/2022,08:26:25,0.002,0.0,0.0,0.0
04/12/2022,08:27:25,0.002,0.0,0.0,0.0
04/12/2022,08:28:24,0.003,0.0,0.0,0.0
04/12/2022,08:29:25,0.003,0.0,0.0,0.0
04/12/2022,08:30:25,0.002,0.0,0.0,0.0
04/12/2022,08:31:24,0.002,0.0,0.0,0.0
04/12/2022,08:32:24,0.003,0.0,0.0,0.0
04/12/2022,08:33:24,0.002,0.0,0.0,0.0
04/12/2022,08:34:24,0.002,0.0,0.0,0.0
04/12/2022,08:35:25,0.003,0.0,0.0,0.0
04/12/2022,08:36:25,0.003,0.0,0.0,0.0
04/12/2022,08:37:25,0.004,0.0,0.0,0.0
04/12/2022,08:38:24,0.003,0.0,0.0,0.0
04/12/2022,08:39:25,0.003,0.0,0.0,0.0
04/12/2022,08:40:24,0.003,0.0,0.0,0.0
04/12/2022,08:41:25,0.004,0.0,0.0,0.0
04/12/2022,08:42:24,0.004,0.0,0.0,0.0
04/12/2022,08:43:24,0.003,0.0,0.0,0.0
04/12/2022,08:44:25,0.003,0.0,0.0,0.0
04/12/2022,08:45:25,0.003,0.0,0.0,0.0
04/12/2022,08:46:24,0.004,0.0,0.0,0.0
04/12/2022,08:47:24,0.004,0.0,0.0,0.0
04/12/2022,08:48:25,0.004,0.0,0.0,0.0
04/12/2022,08:49:26,0.005,0.0,0.0,0.0
04/12/2022,08:50:25,0.004,0.0,0.0,0.0
04/12/2022,08:51:24,0.005,0.0,0.0,0.0
04/12/2022,08:52:25,0.004,0.0,0.0,0.0
04/12/2022,08:53:25,0.005,0.0,0.0,0.0
04/12/2022,08:54:25,0.004,0.0,0.0,0.0
04/12/2022,08:55:26,0.004,0.0,0.0,0.0
04/12/2022,08:56:25,0.004,0.0,0.0,0.0
04/12/2022,08:57:25,0.004,0.0,0.0,0.0
04/12/2022,08:58:24,0.003,0.0,0.0,0.0
04/12/2022,08:59:25,0.004,0.0,0.0,0.0
04/12/2022,09:00:54,0.006,0.0,0.0,0.0
04/12/2022,09:02:25,0.004,0.0,0.0,0.0
04/12/2022,09:03:24,0.006,0.0,0.0,0.0
04/12/2022,09:04:25,0.005,0.0,0.0,0.0
04/12/2022,09:05:24,0.004,0.0,0.0,0.0
04/12/2022,09:06:24,0.006,0.0,0.0,0.0
04/12/2022,09:07:25,0.005,0.0,0.0,0.0
04/12/2022,09:08:25,0.006,0.0,0.0,0.0
04/12/2022,09:09:25,0.007,0.0,0.0,0.0
04/12/2022,09:10:25,0.006,0.0,0.0,0.0
04/12/2022,09:11:25,0.006,0.0,0.0,0.0
04/12/2022,09:12:25,0.006,0.0,0.0,0.0
04/12/2022,09:13:25,0.006,0.0,0.0,0.0
04/12/2022,09:14:25,0.007,0.0,0.0,0.0
04/12/2022,09:15:25,0.005,0.0,0.001,0.001
04/12/2022,09:16:25,0.006,0.0,0.001,0.0
04/12/2022,09:17:25,0.006,0.0,0.001,0.0
04/12/2022,09:18:26,0.007,0.0,0.001,0.0
04/12/2022,09:19:25,0.007,0.0,0.001,0.0
04/12/2022,09:20:25,0.007,0.0,0.001,0.0
04/12/2022,09:21:25,0.008,0.0,0.001,0.0
04/12/2022,09:22:25,0.008,0.0,0.001,0.0
04/12/2022,09:23:25,0.008,0.0,0.001,0.0
04/12/2022,09:24:25,0.008,0.0,0.002,0.001
04/12/2022,09:25:25,0.007,0.0,0.002,0.0
04/12/2022,09:26:25,0.007,0.0,0.002,0.0
04/12/2022,09:27:25,0.007,0.0,0.002,0.0
04/12/2022,09:28:25,0.007,0.0,0.002,0.0
04/12/2022,09:29:25,0.007,0.0,0.002,0.0
04/12/2022,09:30:25,0.006,0.0,0.002,0.0
04/12/2022,09:31:24,0.007,0.0,0.002,0.0
04/12/2022,09:32:26,0.007,0.0,0.003,0.001
04/12/2022,09:33:26,0.008,0.0,0.003,0.0
04/12/2022,09:34:26,0.007,0.0,0.003,0.0
04/12/2022,09:35:24,0.008,0.0,0.003,0.0
04/12/2022,09:36:25,0.008,0.0,0.003,0.0
04/12/2022,09:37:25,0.008,0.0,0.003,0.0
04/12/2022,09:38:25,0.009,0.0,0.003,0.0
04/12/2022,09:39:25,0.009,0.0,0.003,0.0
04/12/2022,09:40:25,0.008,0.0,0.004,0.001
04/12/2022,09:41:24,0.010,0.0,0.004,0.0
04/12/2022,09:42:25,0.008,0.0,0.004,0.0
04/12/2022,09:43:25,0.010,0.0,0.004,0.0
04/12/2022,09:44:25,0.009,0.0,0.004,0.0
04/12/2022,09:45:25,0.008,0.0,0.004,0.0
04/12/2022,09:46:25,0.010,0.0,0.004,0.0
04/12/2022,09:47:25,0.010,0.0,0.005,0.001
04/12/2022,09:48:24,0.009,0.0,0.005,0.0
04/12/2022,09:49:25,0.009,0.0,0.005,0.0
04/12/2022,09:50:24,0.009,0.0,0.005,0.0
04/12/2022,09:51:25,0.010,0.0,0.005,0.0
04/12/2022,09:52:25,0.010,0.0,0.005,0.0
04/12/2022,09:53:25,0.009,0.0,0.006,0.001
04/12/2022,09:54:25,0.010,0.0,0.006,0.0
04/12/2022,09:55:25,0.009,0.0,0.006,0.0
04/12/2022,09:56:25,0.010,0.0,0.006,0.0
04/12/2022,09:57:24,0.010,0.0,0.006,0.0
04/12/2022,09:58:25,0.011,0.0,0.006,0.0
04/12/2022,09:59:25,0.011,0.0,0.007,0.001
04/12/2022,10:00:25,0.012,0.0,0.007,0.0
04/12/2022,10:01:25,0.012,0.0,0.007,0.0
04/12/2022,10:02:25,0.012,0.0,0.007,0.0
04/12/2022,10:03:25,0.012,0.0,0.007,0.0
04/12/2022,10:04:24,0.011,0.0,0.008,0.001
04/12/2022,10:05:25,0.012,0.0,0.008,0.0
04/12/2022,10:06:25,0.011,0.0,0.008,0.0
04/12/2022,10:07:25,0.010,0.0,0.008,0.0
04/12/2022,10:08:25,0.012,0.0,0.008,0.0
04/12/2022,10:09:25,0.013,0.0,0.008,0.0
04/12/2022,10:10:25,0.012,0.0,0.009,0.001
04/12/2022,10:11:25,0.013,0.0,0.009,0.0
04/12/2022,10:12:25,0.015,0.0,0.009,0.0
04/12/2022,10:13:25,0.015,0.0,0.009,0.0
04/12/2022,10:14:25,0.014,0.0,0.01,0.001
04/12/2022,10:15:24,0.013,0.0,0.01,0.0
04/12/2022,10:16:25,0.013,0.0,0.01,0.0
04/12/2022,10:17:25,0.014,0.0,0.01,0.0
04/12/2022,10:18:25,0.015,0.0,0.011,0.001
04/12/2022,10:19:24,0.013,0.0,0.011,0.0
04/12/2022,10:20:25,0.012,0.0,0.011,0.0
04/12/2022,10:21:25,0.013,0.0,0.011,0.0
04/12/2022,10:22:25,0.013,0.0,0.011,0.0
04/12/2022,10:23:24,0.015,0.0,0.012,0.001
04/12/2022,10:24:25,0.013,0.0,0.012,0.0
04/12/2022,10:25:24,0.015,0.0,0.012,0.0